Regional Weather Roundup
Issued by NWS

Home | Current Version | Previous Version | Text Only | Print | Product List | Glossary On
Versions: 1 2 3 4 5 6 7 8 9 10 11 12 13 14 15 16 17 18 19 20 21 22 23 24 25 26 27 28 29 30 31 32 33 34 35 36 37 38 39 40 41 42 43 44 45 46 47 48 49 50
000
ASCA44 KEWX 230620
RWRMX

LATIN AMERICA AND CARIBBEAN REGIONAL WEATHER ROUNDUP
NATIONAL WEATHER SERVICE AUSTIN/SAN ANTONIO TX
100 AM CDT SAT MAY 23 2015

NOTE: "FAIR" INDICATED FEW OR NO CLOUDS BELOW 12,000 FEET WITH NO
SIGNIFICANT WEATHER AND/OR OBSTRUCTIONS TO VISIBILITY.

BAJA CALIFORNIA

CITY           SKY/WX    TMP DP  RH WIND       PRES   REMARKS
LA PAZ           N/A    N/A N/A N/A MISG        N/A
TIJUANA        MOCLDY    59  50  72 W12       30.12R

NORTHWESTERN MEXICO

CITY           SKY/WX    TMP DP  RH WIND       PRES   REMARKS
CULIACAN         N/A    N/A N/A N/A MISG        N/A
HERMOSILLO     CLEAR     70  39  32 CALM      29.98S

NORTHEASTERN MEXICO

CITY           SKY/WX    TMP DP  RH WIND       PRES   REMARKS
MATAMOROS      PTCLDY    79  77  94 SE5       30.04S
MONTERREY      CLOUDY    75  73  94 E8        30.01S
REYNOSA        PTCLDY    73  70  88 S5        30.03R

WESTERN MEXICO

CITY           SKY/WX    TMP DP  RH WIND       PRES   REMARKS
AGUASCALIENTES MOCLDY    57  54  88 NW6       30.36R
DEL BAJIO      MOCLDY    68  54  60 NW15      30.37R
GUADALAJARA    MOCLDY    68  54  60 CALM      30.25S
MAZATLAN       PTCLDY    70  63  78 E8        29.93R
P. VALLARTA    CLEAR     79  75  89 W2        29.95S
ZACATECAS      CLEAR     55  43  62 W5        30.36R

CENTRAL MEXICO

CITY           SKY/WX    TMP DP  RH WIND       PRES   REMARKS
MEXICO CITY    PTCLDY    57  54  88 CALM      30.41S
QUERETARO      MOCLDY    63  55  77 NE6       30.28F
S. LUIS POTOSI MOCLDY    57  55  94 W5        30.33S
TAMPICO          N/A    N/A N/A N/A MISG        N/A
TOLUCA         MOCLDY    52  46  82 CALM      30.46R

SOUTHERN MEXICO

CITY           SKY/WX    TMP DP  RH WIND       PRES   REMARKS
ACAPULCO       MOCLDY    84  79  84 W7        29.94S HX  96
VERACRUZ         N/A    N/A N/A N/A MISG        N/A

YUCATAN PENINSULA

CITY           SKY/WX    TMP DP  RH WIND       PRES   REMARKS
CANCUN         PTCLDY    82  73  74 E7        30.09S
COZUMEL        PTCLDY    75  73  94 CALM      30.08R
MERIDA         MOCLDY    82  72  69 SE17      30.07R
TAPACHULA      CLOUDY    77  73  88 SE17      29.98R

CENTRAL AMERICA

CITY           SKY/WX    TMP DP  RH WIND       PRES   REMARKS
MANAGUA        PTCLDY    79  73  83 E5        29.92

CARIBBEAN

CITY           SKY/WX    TMP DP  RH WIND       PRES   REMARKS
ARUBA          PTCLDY    81  73  78 E22G33    29.94S
CURACAO        PTCLDY    81  73  78 E14       30.00S
KINGSTON       PTCLDY    81  73  78 NW6       30.00F
NASSAU         PTCLDY    79  73  83 SE5       30.15F
SAN JUAN       CLEAR     81  75  83 E3        30.09F
SANTO DOMINGO  MOCLDY    79  73  83 CALM      30.06F
ST. CROIX      MOCLDY    81  73  78 E13       30.09
ST. MAARTEN    MOCLDY    81  73  78 E9        30.09S
ST. THOMAS     CLEAR     81  73  78 NE3       30.08

$$



USA.gov is the U.S. government's official web portal to all federal, state and local government web resources and services.